Weather History for KFWA - January, 2013

Change the Weather History Date:

Wednesday, January 2, 2013

  Actual Average Record
Temperature  
Mean Temperature 11 °F 26 °F  
Max Temperature 19 °F 33 °F 58 °F (2004)
Min Temperature 2 °F 18 °F -8 °F (1945)
Degree Days  
Heating Degree Days 54 40  
Month to date heating degree days 97 79  
Since 1 July heating degree days 2299 2407  
Cooling Degree Days 0 0  
Month to date cooling degree days 0 0  
Year to date cooling degree days 0 0  
Moisture  
Dew Point 6 °F    
Average Humidity 81    
Maximum Humidity 95    
Minimum Humidity 67    
Precipitation  
Precipitation 0.00 in 0.09 in 0.80 in (1947)
Month to date precipitation 0.00 0.17  
Year to date precipitation 0.00 0.17  
Snow  
Snow 0.00 in 0.30 in 7.20 in (1999)
Month to date snowfall 0.0 0.6  
Since 1 July snowfall 9.6 11.2  
Snow Depth 4.00 in    
Sea Level Pressure  
Sea Level Pressure 30.23 in    
Wind  
Wind Speed 5 mph (SW)    
Max Wind Speed 14 mph    
Max Gust Speed 12 mph    
Visibility 10 miles    
Events      
T = Trace of Precipitation, MM = Missing Value Source: NWS Daily Summary

Daily Weather History Graph

Daily Weather History Graph

Search for Another Location

Airport or City:

Trip Planner

Search our weather history database for the weather conditions in past years. The results will help you decide how hot, cold, wet, or windy it might be!

Date:

Astronomy

Jan. 02, 2013 Rise Set
Actual Time 8:05 AM EST 5:24 PM EST
Civil Twilight 7:34 AM EST 5:55 PM EST
Nautical Twilight 7:00 AM EST 6:29 PM EST
Astronomical Twilight 6:27 AM EST 7:03 PM EST
Moon 10:58 PM EST (1/2) 10:44 AM EST (1/2)
Length of Visible Light 10h 20m
Length of Day
9h 18m
Waning Gibbous, 75% of the Moon is Illuminated
Jan 2
Waning Gibbous
Jan 4
Last Quarter
Jan 11
New
Jan 18
First Quarter
Jan 26
Full

Hourly Weather History & Observations

Time (EST) Temp. Windchill Dew Point Humidity Pressure Visibility Wind Dir Wind Speed Gust Speed Precip Events Conditions
12:54 AM 12.0 °F 4.1 °F 10.9 °F 95% 30.16 in 10.0 mi West 4.6 mph - N/A   Scattered Clouds
1:54 AM 7.0 °F -4.5 °F 5.0 °F 92% 30.17 in 10.0 mi West 6.9 mph - N/A   Scattered Clouds
2:54 AM 9.0 °F -3.2 °F 7.0 °F 92% 30.19 in 10.0 mi West 8.1 mph - N/A   Scattered Clouds
3:54 AM 8.1 °F -3.2 °F 7.0 °F 95% 30.19 in 10.0 mi West 6.9 mph - N/A   Partly Cloudy
4:54 AM 7.0 °F -4.5 °F 5.0 °F 92% 30.20 in 10.0 mi West 6.9 mph - N/A   Mostly Cloudy
5:54 AM 7.0 °F -3.3 °F 5.0 °F 92% 30.22 in 10.0 mi West 5.8 mph - N/A   Partly Cloudy
6:54 AM 6.8 °F -2.0 °F 3.2 °F 85% 30.16 in 10.0 mi West 4.6 mph - N/A   Scattered Clouds
7:54 AM 1.9 °F -7.6 °F -0.9 °F 88% 30.22 in 10.0 mi WSW 4.6 mph - N/A   Partly Cloudy
8:54 AM 1.9 °F -7.6 °F -0.9 °F 88% 30.25 in 8.0 mi WSW 4.6 mph - N/A   Scattered Clouds
9:54 AM 7.0 °F -4.5 °F 3.9 °F 87% 30.27 in 9.0 mi West 6.9 mph - N/A   Scattered Clouds
10:54 AM 12.0 °F 4.1 °F 8.1 °F 84% 30.28 in 9.0 mi SW 4.6 mph - N/A   Scattered Clouds
11:54 AM 15.1 °F 6.4 °F 10.0 °F 80% 30.26 in 10.0 mi SW 5.8 mph - N/A   Scattered Clouds
12:54 PM 16.0 °F 7.4 °F 10.9 °F 81% 30.25 in 10.0 mi SSW 5.8 mph - N/A   Scattered Clouds
1:54 PM 18.0 °F 7.7 °F 12.0 °F 78% 30.23 in 10.0 mi SSW 8.1 mph - N/A   Scattered Clouds
2:54 PM 19.0 °F 9.0 °F 12.9 °F 77% 30.22 in 10.0 mi South 8.1 mph - N/A   Scattered Clouds
3:54 PM 19.0 °F 11.1 °F 10.9 °F 71% 30.23 in 10.0 mi South 5.8 mph - N/A   Scattered Clouds
4:54 PM 15.1 °F 5.2 °F 7.0 °F 70% 30.25 in 10.0 mi SSW 6.9 mph - N/A   Scattered Clouds
5:54 PM 12.9 °F 5.2 °F 5.0 °F 71% 30.26 in 10.0 mi SSW 4.6 mph - N/A   Scattered Clouds
6:54 PM 10.0 °F 3.6 °F 3.9 °F 76% 30.28 in 10.0 mi SSW 3.5 mph - N/A   Scattered Clouds
7:54 PM 10.9 °F 2.9 °F 3.9 °F 73% 30.26 in 10.0 mi South 4.6 mph - N/A   Scattered Clouds
8:54 PM 10.0 °F 1.8 °F 3.0 °F 73% 30.26 in 10.0 mi South 4.6 mph - N/A   Partly Cloudy
9:54 PM 9.0 °F 2.4 °F 1.0 °F 70% 30.25 in 10.0 mi SSE 3.5 mph - N/A   Partly Cloudy
10:54 PM 9.0 °F -0.9 °F 1.9 °F 73% 30.24 in 10.0 mi SSW 5.8 mph - N/A   Clear
11:54 PM 10.0 °F 0.4 °F 3.0 °F 73% 30.22 in 10.0 mi South 5.8 mph - N/A   Clear